When you browse on this site, cookies collect data to enhance your experience and personalize the content and advertising you see.
Visit our Privacy Policy to learn more. By continuing to use the site, you agree to this use of cookies and data.
  • In Latvia
  • List of Countries
  • For 7 days
  • Water Temperature
  • Satellite Maps
  • Weather Map
  • Weather Widgets
  • user-avatar
    Login

    Hourly Weather Sumgayit

    Today, 16 June, Sunday

    Time Temperature Precipitation Wind Pressure Humidity
    00:00 +25°C° 0 mm 1 mps 736 mmHg 35%
    01:00 +25°C° 0 mm 1 mps 736 mmHg 35%
    02:00 +24°C° 0 mm 1 mps 736 mmHg 36%
    03:00 +24°C° 0 mm 1 mps 736 mmHg 36%
    04:00 +25°C° 0 mm 1 mps 736 mmHg 34%
    05:00 +25°C° 0 mm 1 mps 736 mmHg 32%
    06:00 +26°C° 0 mm 2 mps 736 mmHg 29%
    07:00 +28°C° 0 mm 1 mps 736 mmHg 27%
    08:00 +29°C° 0 mm 1 mps 736 mmHg 24%
    09:00 +31°C° 0 mm 1 mps 736 mmHg 21%
    10:00 +32°C° 0 mm 2 mps 736 mmHg 20%
    11:00 +34°C° 0 mm 3 mps 736 mmHg 19%
    12:00 +35°C° 0 mm 3 mps 735 mmHg 17%
    13:00 +35°C° 0 mm 4 mps 735 mmHg 17%
    14:00 +36°C° 0 mm 4 mps 735 mmHg 18%
    15:00 +36°C° 0 mm 4 mps 734 mmHg 18%
    16:00 +35°C° 0 mm 4 mps 734 mmHg 20%
    17:00 +34°C° 0 mm 3 mps 734 mmHg 22%
    18:00 +33°C° 0 mm 3 mps 734 mmHg 24%
    19:00 +30°C° 0 mm 3 mps 734 mmHg 28%
    20:00 +29°C° 0 mm 4 mps 734 mmHg 33%
    21:00 +28°C° 0 mm 5 mps 735 mmHg 37%
    22:00 +27°C° 0 mm 4 mps 734 mmHg 39%
    23:00 +27°C° 0 mm 3 mps 734 mmHg 41%

    Tomorrow, 17 June, Monday

    Time Temperature Precipitation Wind Pressure Humidity
    00:00 +26°C° 0 mm 2 mps 734 mmHg 43%
    01:00 +26°C° 0 mm 2 mps 734 mmHg 44%
    02:00 +25°C° 0 mm 2 mps 734 mmHg 46%
    03:00 +25°C° 0 mm 2 mps 734 mmHg 47%
    04:00 +25°C° 0 mm 2 mps 734 mmHg 45%
    05:00 +26°C° 0 mm 2 mps 734 mmHg 42%
    06:00 +27°C° 0 mm 3 mps 734 mmHg 40%
    07:00 +28°C° 0 mm 3 mps 734 mmHg 37%
    08:00 +30°C° 0 mm 3 mps 735 mmHg 34%
    09:00 +31°C° 0 mm 3 mps 735 mmHg 30%
    10:00 +33°C° 0 mm 4 mps 735 mmHg 29%
    11:00 +33°C° 0 mm 4 mps 735 mmHg 28%
    12:00 +34°C° 0 mm 5 mps 735 mmHg 26%
    13:00 +34°C° 0 mm 5 mps 734 mmHg 25%
    14:00 +34°C° 0 mm 6 mps 734 mmHg 24%
    15:00 +34°C° 0 mm 7 mps 734 mmHg 23%
    16:00 +33°C° 0 mm 7 mps 734 mmHg 25%
    17:00 +32°C° 0 mm 7 mps 734 mmHg 27%
    18:00 +30°C° 0 mm 7 mps 734 mmHg 29%
    19:00 +29°C° 0 mm 7 mps 734 mmHg 31%
    20:00 +29°C° 0 mm 7 mps 734 mmHg 33%
    21:00 +28°C° 0 mm 7 mps 735 mmHg 36%
    22:00 +28°C° 0 mm 6 mps 735 mmHg 37%
    23:00 +28°C° 0 mm 4 mps 735 mmHg 38%

    Day after tomorrow, 18 June, Tuesday

    Time Temperature Precipitation Wind Pressure Humidity
    00:00 +28°C° 0 mm 3 mps 735 mmHg 40%
    01:00 +27°C° 0 mm 3 mps 735 mmHg 41%
    02:00 +27°C° 0 mm 3 mps 734 mmHg 42%
    03:00 +27°C° 0 mm 2 mps 734 mmHg 43%
    04:00 +27°C° 0 mm 2 mps 734 mmHg 42%
    05:00 +28°C° 0 mm 2 mps 735 mmHg 41%
    06:00 +28°C° 0 mm 3 mps 735 mmHg 39%
    07:00 +30°C° 0 mm 3 mps 735 mmHg 35%
    08:00 +32°C° 0 mm 4 mps 735 mmHg 32%
    09:00 +33°C° 0 mm 5 mps 736 mmHg 28%
    10:00 +34°C° 0 mm 6 mps 736 mmHg 27%
    11:00 +35°C° 0 mm 7 mps 735 mmHg 26%
    12:00 +37°C° 0 mm 8 mps 735 mmHg 25%
    13:00 +37°C° 0 mm 9 mps 735 mmHg 26%
    14:00 +36°C° 0 mm 10 mps 735 mmHg 26%
    15:00 +36°C° 0 mm 11 mps 734 mmHg 26%
    16:00 +34°C° 0 mm 11 mps 734 mmHg 27%
    17:00 +33°C° 0 mm 12 mps 734 mmHg 27%
    18:00 +33°C° 0 mm 12 mps 734 mmHg 28%
    19:00 +32°C° 0 mm 12 mps 735 mmHg 29%
    20:00 +31°C° 0 mm 11 mps 735 mmHg 30%
    21:00 +31°C° 0 mm 11 mps 735 mmHg 31%
    22:00 +31°C° 0 mm 11 mps 735 mmHg 30%
    23:00 +31°C° 0 mm 10 mps 735 mmHg 30%

    19 June, Wednesday

    Time Temperature Precipitation Wind Pressure Humidity
    00:00 +29°C° 0 mm 10 mps 735 mmHg 29%
    01:00 +29°C° 0 mm 10 mps 735 mmHg 30%
    02:00 +29°C° 0 mm 9 mps 735 mmHg 31%
    03:00 +28°C° 0 mm 9 mps 734 mmHg 32%
    04:00 +29°C° 0 mm 10 mps 735 mmHg 32%
    05:00 +29°C° 0 mm 10 mps 735 mmHg 31%
    06:00 +29°C° 0 mm 10 mps 735 mmHg 31%
    07:00 +31°C° 0 mm 10 mps 735 mmHg 29%
    08:00 +32°C° 0 mm 11 mps 735 mmHg 27%
    09:00 +34°C° 0 mm 11 mps 735 mmHg 24%
    10:00 +34°C° 0 mm 11 mps 735 mmHg 24%
    11:00 +34°C° 0 mm 10 mps 735 mmHg 24%
    12:00 +36°C° 0 mm 10 mps 735 mmHg 23%
    13:00 +36°C° 0 mm 10 mps 735 mmHg 24%
    14:00 +34°C° 0 mm 10 mps 735 mmHg 24%
    15:00 +34°C° 0 mm 10 mps 735 mmHg 25%
    16:00 +33°C° 0 mm 10 mps 735 mmHg 25%
    17:00 +32°C° 0 mm 10 mps 735 mmHg 26%
    18:00 +32°C° 0 mm 10 mps 735 mmHg 26%
    19:00 +31°C° 0 mm 10 mps 735 mmHg 27%
    20:00 +29°C° 0 mm 9 mps 735 mmHg 28%
    21:00 +29°C° 0 mm 9 mps 735 mmHg 29%
    22:00 +29°C° 0 mm 8 mps 735 mmHg 30%
    23:00 +28°C° 0 mm 8 mps 735 mmHg 30%

    20 June, Thursday

    Time Temperature Precipitation Wind Pressure Humidity
    00:00 +28°C° 0 mm 7 mps 735 mmHg 31%
    01:00 +27°C° 0 mm 7 mps 735 mmHg 33%
    02:00 +27°C° 0 mm 6 mps 735 mmHg 35%
    03:00 +26°C° 0 mm 6 mps 735 mmHg 37%
    04:00 +27°C° 0 mm 6 mps 735 mmHg 36%
    05:00 +27°C° 0 mm 6 mps 735 mmHg 36%
    06:00 +28°C° 0 mm 6 mps 735 mmHg 36%
    07:00 +30°C° 0 mm 7 mps 735 mmHg 32%
    08:00 +32°C° 0 mm 8 mps 735 mmHg 29%
    09:00 +34°C° 0 mm 9 mps 736 mmHg 25%
    10:00 +34°C° 0 mm 9 mps 735 mmHg 25%
    11:00 +34°C° 0 mm 9 mps 735 mmHg 25%
    12:00 +36°C° 0 mm 10 mps 735 mmHg 24%
    13:00 +34°C° 0 mm 10 mps 735 mmHg 25%
    14:00 +34°C° 0 mm 10 mps 735 mmHg 25%
    15:00 +34°C° 0 mm 11 mps 734 mmHg 25%
    16:00 +33°C° 0 mm 11 mps 734 mmHg 26%
    17:00 +32°C° 0 mm 11 mps 734 mmHg 27%
    18:00 +32°C° 0 mm 11 mps 734 mmHg 29%
    19:00 +31°C° 0 mm 10 mps 735 mmHg 30%
    20:00 +31°C° 0 mm 10 mps 735 mmHg 31%
    21:00 +29°C° 0 mm 10 mps 735 mmHg 32%
    22:00 +29°C° 0 mm 10 mps 735 mmHg 31%
    23:00 +28°C° 0 mm 10 mps 735 mmHg 31%

    21 June, Friday

    Time Temperature Precipitation Wind Pressure Humidity
    00:00 +28°C° 0 mm 10 mps 735 mmHg 31%
    01:00 +28°C° 0 mm 10 mps 735 mmHg 31%
    02:00 +28°C° 0 mm 9 mps 735 mmHg 31%
    03:00 +28°C° 0 mm 9 mps 735 mmHg 31%
    04:00 +28°C° 0 mm 9 mps 735 mmHg 31%
    05:00 +28°C° 0 mm 9 mps 735 mmHg 32%
    06:00 +29°C° 0 mm 9 mps 736 mmHg 32%
    07:00 +31°C° 0.1 mm 9 mps 736 mmHg 30%
    08:00 +32°C° 0.1 mm 9 mps 736 mmHg 28%
    09:00 +33°C° 0.1 mm 9 mps 736 mmHg 26%
    10:00 +33°C° 0.2 mm 9 mps 737 mmHg 28%
    11:00 +32°C° 0.2 mm 10 mps 737 mmHg 30%
    12:00 +32°C° 0.2 mm 11 mps 737 mmHg 32%
    13:00 +32°C° 0.1 mm 11 mps 737 mmHg 33%
    14:00 +31°C° 0.1 mm 11 mps 736 mmHg 35%
    15:00 +31°C° 0.1 mm 11 mps 736 mmHg 36%
    16:00 +31°C° 0.1 mm 11 mps 736 mmHg 37%
    17:00 +31°C° 0.1 mm 11 mps 736 mmHg 38%
    18:00 +29°C° 0.1 mm 10 mps 736 mmHg 39%
    19:00 +29°C° 0 mm 10 mps 736 mmHg 39%
    20:00 +29°C° 0 mm 10 mps 737 mmHg 38%
    21:00 +28°C° 0 mm 10 mps 737 mmHg 38%
    22:00 +28°C° 0 mm 9 mps 737 mmHg 36%
    23:00 +28°C° 0 mm 9 mps 737 mmHg 35%
    Show more